This demonstration page uses our WeatherBlox Daily Observations layout. Learn more.

Left ArrowRight Arrow

Hourly Observations for March 9, 2022

Temp ( °F °C ) Dew Point ( °F °C ) Humidity (%) Winds ( mph kmh ) Pressure ( in mb ) Visibility ( mi km ) Precip ( " mm )
12:53 am 00:53 Clear 37 2.8 12 -11.1 36 36 SE 6 9 29.97 1015 10 16 0.00 0.00
1:53 am 01:53 Clear 33 0.6 10 -12.2 38 38 S 7 11 29.98 1015 10 16 0.00 0.00
2:53 am 02:53 Clear 33 0.6 11 -11.7 40 40 Calm 29.97 1015 10 16 0.00 0.00
3:53 am 03:53 Clear 28 -2.2 8 -13.3 43 43 ENE 6 9 29.96 1015 10 16 0.00 0.00
4:53 am 04:53 Clear 29 -1.7 9 -12.8 43 43 E 3 6 29.96 1014 10 16 0.00 0.00
5:53 am 05:53 Clear 29 -1.7 11 -11.7 47 47 Calm 29.96 1015 10 16 0.00 0.00
6:53 am 06:53 Clear 34 1.1 17 -8.3 50 50 SE 13 20 29.96 1015 10 16 0.00 0.00
7:53 am 07:53 Sunny 35 1.7 19 -7.2 52 52 ESE 10 17 29.97 1015 10 16 0.00 0.00
8:53 am 08:53 Sunny 41 5 22 -5.6 47 47 SE 16 26 29.96 1015 10 16 0.00 0.00
9:53 am 09:53 Sunny 48 8.9 26 -3.3 42 42 SSE 17 28 29.95 1014 10 16 0.00 0.00
10:53 am 10:53 Sunny 53 11.7 27 -2.8 37 37 SE 21 33 29.92 1013 10 16 0.00 0.00
11:53 am 11:53 Sunny 58 14.4 27 -2.8 31 31 SE 17 28 29.88 1012 10 16 0.00 0.00
12:53 pm 12:53 Sunny 61 16.1 26 -3.3 26 26 SSE 16 26 29.83 1010 10 16 0.00 0.00
1:53 pm 13:53 Sunny 64 17.8 24 -4.4 22 22 S 16 26 29.79 1009 10 16 0.00 0.00
2:53 pm 14:53 Sunny 65 18.3 22 -5.6 19 19 S 13 20 29.74 1007 10 16 0.00 0.00
3:53 pm 15:53 Sunny 68 20 22 -5.6 17 17 S 15 24 29.72 1006 10 16 0.00 0.00
4:53 pm 16:53 Sunny 69 20.6 22 -5.6 17 17 S 13 20 29.70 1006 10 16 0.00 0.00
5:53 pm 17:53 Sunny 67 19.4 23 -5 19 19 SE 17 28 29.68 1005 10 16 0.00 0.00
6:53 pm 18:53 Sunny 63 17.2 24 -4.4 23 23 SE 15 24 29.69 1006 10 16 0.00 0.00
7:53 pm 19:53 Clear 59 15 25 -3.9 27 27 SE 12 19 29.72 1007 10 16 0.00 0.00
8:53 pm 20:53 Clear 56 13.3 25 -3.9 30 30 SE 10 17 29.74 1007 10 16 0.00 0.00
9:53 pm 21:53 Clear 50 10 24 -4.4 36 36 SSE 6 9 29.75 1007 10 16 0.00 0.00
10:53 pm 22:53 Clear 50 10 25 -3.9 38 38 VRB 6 9 29.74 1007 10 16 0.00 0.00
11:53 pm 23:53 Clear 47 8.3 26 -3.3 44 44 SE 9 15 29.74 1007 10 16 0.00 0.00

Powered by AerisWeather